sat.trackr.live / text

‹ back to catalog

STARLINK-33574

NORAD 62774 · 2025-015S

PAYLOAD ACTIVE UNKNOWN

§ Identity

Operator
Country
US
Launch date
2025-01-21
Launch site
AFWTR
Launch vehicle
Mass (kg)
RCS (m²)

Purposes: comms

External: N2YO · Heavens-Above · Gunter

§ Orbital elements

Epoch: 2026-05-25T04:48:10.766304Z

Period
93.85 min
Inclination
53.1600°
Eccentricity
0.0001048
Mean motion
15.34399639 rev/d
Perigee alt
462.0 km
Apogee alt
463.4 km
Semi-major
6,840.8 km
B*
6.1116e-4
RAAN
326.4790°
Arg perigee
93.7567°
Mean anomaly
266.3556°
Rev number
7,592

§ Raw data

STARLINK-335741 62774U 25015S   26145.20012461  .00020329  00000+0  61116-3 0  99962 62774  53.1600 326.4790 0001048  93.7567 266.3556 15.34399639 75922

JSON: /api/v1/satellites/62774 · /tle

For live sub-satellite position, see the globe view (requires WebGL).

§ Visibility from observer

Set your observer location to see the next 7 days of passes ≥ 10°. The values pass through the URL so the page stays shareable.

No JS? Fill the form by hand. The geolocation button needs JavaScript.